Location: Newark
(43.0000°N, 1.6781°W)
Time: 22:33:02
(UTC+00:00)

N. Korean satellite - Pass Details

Date: 09 December 2021
Orbit: 447 x 491 km, 97.3° (Epoch: 21 January)

Event Time Altitude Azimuth Distance (km) Brightness Sun altitude
Rises 17:43:58 0° 216° (SW) 2,510 11.2 -12.7°
Reaches altitude 10° 17:47:53 10° 261° (W) 1,626 10.6 -13.4°
Maximum altitude 17:48:23 10° 269° (W) 1,610 10.4 -13.5°
Drops below altitude 10° 17:48:54 10° 278° (W) 1,624 10.3 -13.6°
Sets 17:52:48 0° 323° (NW) 2,493 10.4 -14.3°
